Petawawa, Ontario

9:08 AM EDT on August 23, 2017 (GMT -0400)
Petawawa

Weather History for CYWA - May, 2013

Change the Weather History Date:

Thursday, May 2, 2013

  Actual Average Record
Temperature  
Mean Temperature 61 °F -  
Max Temperature 79 °F 64 °F 87 °F (2001)
Min Temperature 43 °F 40 °F 28 °F (2005)
Degree Days  
Heating Degree Days 4    
Growing Degree Days 11 (Base 50)    
Moisture  
Dew Point 43 °F    
Average Humidity 49    
Maximum Humidity 87    
Minimum Humidity 17    
Precipitation  
Precipitation 0.02 in 0.09 in - ()
Sea Level Pressure  
Sea Level Pressure 30.34 in    
Wind  
Wind Speed 3 mph ()    
Max Wind Speed 8 mph    
Max Gust Speed -    
Visibility 9.0 miles    
Events      
Averages and records for this station are not official NWS values.
T = Trace of Precipitation, MM = Missing Value Source: Averaged Metar Reports

Daily Weather History Graph

Daily Weather History Graph

Search for Another Location

Airport or City:

Trip Planner

Search our weather history database for the weather conditions in past years. The results will help you decide how hot, cold, wet, or windy it might be!

Date:

Astronomy

May. 02, 2013 Rise Set
Actual Time 5:54 AM EDT 8:18 PM EDT
Civil Twilight 5:21 AM EDT 8:52 PM EDT
Nautical Twilight 4:39 AM EDT 9:33 PM EDT
Astronomical Twilight 3:52 AM EDT 10:21 PM EDT
Moon 2:04 AM EDT (5/2) 12:43 PM EDT (5/2)
Length of Visible Light 15h 30m
Length of Day
14h 24m
Waning Gibbous, 48% of the Moon is Illuminated
May 2
Waning Gibbous
May 9
New
May 18
First Quarter
May 25
Full
May 31
Last Quarter

Hourly Weather History & Observations

Time (EDT) Temp. Dew Point Humidity Pressure Visibility Wind Dir Wind Speed Gust Speed Precip Events Conditions
12:00 AM 60.8 °F 42.8 °F 52% 30.34 in 9.0 mi ESE 2.3 mph - N/A   Clear
1:00 AM 57.2 °F 42.8 °F 59% 30.35 in 9.0 mi ESE 3.5 mph - N/A   Clear
2:00 AM 51 °F 42 °F 63% 30.35 in 9 mi ESE 4.6 mph - -  
2:00 AM 51.8 °F 42.8 °F 71% 30.35 in 9.0 mi ESE 4.6 mph - N/A   Clear
3:00 AM 50.0 °F 42.8 °F 76% 30.35 in 9.0 mi Calm Calm - N/A   Clear
4:00 AM 46.4 °F 42.8 °F 87% 30.35 in 9.0 mi Calm Calm - N/A   Clear
5:00 AM 46 °F 42 °F 79% 30.36 in 9 mi Calm Calm - -  
5:00 AM 46.4 °F 41.0 °F 81% 30.36 in 9.0 mi Calm Calm - N/A   Clear
6:00 AM 46.4 °F 41.0 °F 81% 30.37 in 9.0 mi Calm Calm - N/A   Clear
7:00 AM 46.4 °F 42.8 °F 87% 30.39 in 9.0 mi Calm Calm - N/A   Clear
8:00 AM 51 °F 44 °F 70% 30.40 in 9 mi Calm Calm - -  
8:00 AM 51.8 °F 44.6 °F 76% 30.40 in 9.0 mi Calm Calm - N/A   Clear
9:00 AM 55.4 °F 44.6 °F 67% 30.40 in 9.0 mi ESE 2.3 mph - N/A   Partly Cloudy
10:00 AM 64.4 °F 46.4 °F 52% 30.40 in 9.0 mi ESE 4.6 mph - N/A   Partly Cloudy
11:00 AM 68 °F 45 °F 32% 30.40 in 9 mi East 5.8 mph - -  
11:00 AM 68.0 °F 44.6 °F 43% 30.40 in 9.0 mi East 5.8 mph - N/A   Clear
12:00 PM 71.6 °F 44.6 °F 38% 30.38 in 9.0 mi East 8.1 mph - N/A   Partly Cloudy
1:00 PM 75.2 °F 44.6 °F 34% 30.35 in 9.0 mi ESE 6.9 mph - N/A   Clear
2:00 PM 76 °F 45 °F 23% 30.34 in 9 mi ESE 8.1 mph - -  
2:00 PM 77.0 °F 44.6 °F 32% 30.34 in 9.0 mi ESE 6.9 mph - N/A   Clear
3:00 PM 77.0 °F 42.8 °F 29% 30.32 in 9.0 mi ESE 5.8 mph - N/A   Clear
4:00 PM 77.0 °F 42.8 °F 29% 30.31 in 9.0 mi ESE 5.8 mph - N/A   Clear
5:00 PM 79 °F 42 °F 17% 30.29 in 9 mi East 6.9 mph - -  
5:00 PM 78.8 °F 42.8 °F 28% 30.29 in 9.0 mi East 5.8 mph - N/A   Clear
6:00 PM 77.0 °F 42.8 °F 29% 30.28 in 9.0 mi ESE 5.8 mph - N/A   Clear
7:00 PM 77.0 °F 41.0 °F 28% 30.27 in 9.0 mi ESE 5.8 mph - N/A   Clear
8:00 PM 74 °F 42 °F 20% 30.28 in 9 mi ESE 5.8 mph - -  
8:00 PM 73.4 °F 41.0 °F 31% 30.28 in 9.0 mi ESE 5.8 mph - N/A   Clear
9:00 PM 71.6 °F 42.8 °F 35% 30.29 in 9.0 mi SE 4.6 mph - N/A   Clear
10:00 PM 68.0 °F 42.8 °F 40% 30.30 in 9.0 mi ESE 4.6 mph - N/A   Clear
11:00 PM 66 °F 44 °F 33% 30.30 in 9 mi ESE 3.5 mph - -  
11:00 PM 66.2 °F 42.8 °F 43% 30.30 in 9.0 mi ESE 3.5 mph - N/A   Clear